| time (UTC) | temp F | wind direction | speed knots | gust knots | rain 1hr in | rain 24hr in | rain mn in | humidity % | barometer mb |
| 20260505125017 | 55 | 180 | 3.5 | 7.0 | 0.00 | 0.00 | 0.00 | 84 | 1014.1 |
| 20260505124017 | 55 | 203 | 3.5 | 7.8 | 0.00 | 0.00 | 0.00 | 84 | 1014.1 |
| 20260505123017 | 55 | 225 | 2.6 | 4.3 | 0.00 | 0.00 | 0.00 | 85 | 1014.2 |
| 20260505122018 | 55 | 180 | 2.6 | 4.3 | 0.00 | 0.00 | 0.00 | 85 | 1014.1 |
| 20260505121017 | 55 | 225 | 2.6 | 5.2 | 0.00 | 0.00 | 0.00 | 85 | 1014.0 |
| 20260505120038 | 55 | 203 | 4.3 | 7.0 | 0.00 | 0.00 | 0.00 | 85 | 1014.0 |
| 20260505115017 | 55 | 203 | 2.6 | 5.2 | 0.00 | 0.00 | 0.00 | 85 | 1014.0 |
| 20260505114017 | 55 | 225 | 3.5 | 5.2 | 0.00 | 0.00 | 0.00 | 85 | 1013.9 |
| 20260505113017 | 55 | 203 | 2.6 | 4.3 | 0.00 | 0.00 | 0.00 | 85 | 1013.9 |
| 20260505112017 | 55 | 225 | 2.6 | 4.3 | 0.00 | 0.00 | 0.00 | 85 | 1013.9 |
| 20260505111018 | 55 | 225 | 2.6 | 5.2 | 0.00 | 0.00 | 0.00 | 85 | 1013.8 |
| 20260505102017 | 55 | 225 | 4.3 | 8.7 | 0.00 | 0.00 | 0.00 | 85 | 1013.6 |
| 20260505101019 | 55 | 225 | 3.5 | 7.8 | 0.00 | 0.00 | 0.00 | 85 | 1013.5 |
| 20260505100017 | 55 | 225 | 3.5 | 7.0 | 0.00 | 0.00 | 0.00 | 85 | 1013.4 |
| 20260505095017 | 55 | 225 | 4.3 | 7.8 | 0.00 | 0.00 | 0.00 | 85 | 1013.3 |
| 20260505094038 | 55 | 225 | 3.5 | 6.1 | 0.00 | 0.00 | 0.00 | 85 | 1013.3 |
| 20260505093037 | 55 | 225 | 4.3 | 7.8 | 0.00 | 0.00 | 0.00 | 85 | 1013.2 |
| 20260505092017 | 55 | 225 | 4.3 | 7.8 | 0.00 | 0.00 | 0.00 | 85 | 1013.2 |
| 20260505091017 | 55 | 248 | 2.6 | 4.3 | 0.00 | 0.00 | 0.00 | 86 | 1013.1 |
| 20260505090038 | 55 | 248 | 2.6 | 7.0 | 0.00 | 0.00 | 0.00 | 86 | 1012.9 |
| 20260505085039 | 55 | 248 | 2.6 | 5.2 | 0.00 | 0.00 | 0.00 | 85 | 1013.0 |
| 20260505084018 | 55 | 248 | 4.3 | 6.1 | 0.00 | 0.00 | 0.00 | 86 | 1013.0 |
| 20260505083017 | 54 | 248 | 3.5 | 6.1 | 0.00 | 0.00 | 0.00 | 85 | 1012.9 |
| 20260505082037 | 55 | 248 | 2.6 | 4.3 | 0.00 | 0.00 | 0.00 | 85 | 1012.9 |
| 20260505081017 | 55 | 248 | 1.7 | 3.5 | 0.00 | 0.00 | 0.00 | 85 | 1012.9 |
| 20260505080017 | 55 | 248 | 0.9 | 2.6 | 0.00 | 0.00 | 0.00 | 84 | 1012.7 |
| 20260505075017 | 55 | 270 | 0.9 | 2.6 | 0.00 | 0.00 | 0.00 | 84 | 1012.7 |
| 20260505074017 | 55 | 248 | 1.7 | 3.5 | 0.00 | 0.00 | 0.00 | 84 | 1012.6 |
| 20260505073017 | 56 | 270 | 1.7 | 5.2 | 0.00 | 0.00 | 0.00 | 84 | 1012.4 |
| 20260505072038 | 56 | 270 | 2.6 | 6.1 | 0.00 | 0.00 | 0.00 | 83 | 1012.4 |
| 20260505071017 | 56 | 293 | 1.7 | 3.5 | 0.00 | 0.00 | 0.00 | 83 | 1012.3 |
| 20260505070017 | 56 | 270 | 1.7 | 4.3 | 0.00 | 0.00 | 0.00 | 83 | 1012.2 |
| 20260505065016 | 56 | 270 | 1.7 | 4.3 | 0.00 | 0.00 | 0.00 | 83 | 1012.1 |
| 20260505064016 | 57 | 270 | 2.6 | 6.1 | 0.00 | 0.00 | 0.00 | 82 | 1011.9 |
| 20260505063016 | 57 | 270 | 3.5 | 7.0 | 0.00 | 0.00 | 0.00 | 82 | 1011.8 |
| 20260505062016 | 57 | 270 | 1.7 | 3.5 | 0.00 | 0.00 | 0.00 | 81 | 1011.8 |
| 20260505061016 | 58 | 270 | 2.6 | 5.2 | 0.00 | 0.00 | 0.00 | 81 | 1011.7 |
| 20260505060016 | 58 | 270 | 2.6 | 4.3 | 0.00 | 0.00 | 0.00 | 80 | 1011.6 |
| 20260505055016 | 58 | 270 | 3.5 | 5.2 | 0.00 | 0.00 | 0.00 | 79 | 1011.4 |
| 20260505054036 | 59 | 270 | 3.5 | 7.0 | 0.00 | 0.00 | 0.00 | 78 | 1011.4 |
| 20260505053016 | 59 | 270 | 3.5 | 5.2 | 0.00 | 0.00 | 0.00 | 78 | 1011.3 |
| 20260505052016 | 60 | 270 | 3.5 | 7.8 | 0.00 | 0.00 | 0.00 | 77 | 1011.3 |
| 20260505051016 | 61 | 248 | 5.2 | 9.6 | 0.00 | 0.00 | 0.00 | 75 | 1011.2 |
| 20260505041016 | 65 | 225 | 6.1 | 9.6 | 0.00 | 0.00 | 0.00 | 68 | 1010.5 |
| 20260505040017 | 66 | 248 | 3.5 | 6.1 | 0.00 | 0.00 | 0.00 | 67 | 1010.4 |
| 20260505035036 | 66 | 248 | 5.2 | 7.8 | 0.00 | 0.00 | 0.00 | 66 | 1010.2 |
| 20260505034015 | 67 | 248 | 5.2 | 8.7 | 0.00 | 0.00 | 0.00 | 65 | 1010.1 |
| 20260505033036 | 68 | 248 | 6.1 | 9.6 | 0.00 | 0.00 | 0.00 | 64 | 1009.9 |
| 20260505032015 | 69 | 270 | 5.2 | 9.6 | 0.00 | 0.00 | 0.00 | 62 | 1009.8 |
| 20260505031015 | 70 | 270 | 5.2 | 8.7 | 0.00 | 0.00 | 0.00 | 62 | 1009.7 |
| 20260505030038 | 71 | 270 | 5.2 | 8.7 | 0.00 | 0.00 | 0.00 | 61 | 1009.5 |
| 20260505025037 | 71 | 293 | 3.5 | 7.0 | 0.00 | 0.00 | 0.00 | 60 | 1009.3 |
| 20260505024037 | 72 | 293 | 2.6 | 6.1 | 0.00 | 0.00 | 0.00 | 59 | 1009.3 |
| 20260505023017 | 73 | 293 | 3.5 | 8.7 | 0.00 | 0.00 | 0.00 | 58 | 1009.1 |
| 20260505022037 | 74 | 293 | 2.6 | 6.1 | 0.00 | 0.00 | 0.00 | 58 | 1009.1 |
| 20260505021015 | 74 | 293 | 3.5 | 7.0 | 0.00 | 0.00 | 0.00 | 57 | 1009.1 |
| 20260505020036 | 75 | 270 | 2.6 | 7.0 | 0.00 | 0.00 | 0.00 | 58 | 1009.1 |
| 20260505015015 | 75 | 293 | 3.5 | 7.8 | 0.00 | 0.00 | 0.00 | 56 | 1009.1 |
| 20260505014016 | 75 | 293 | 3.5 | 7.8 | 0.00 | 0.00 | 0.00 | 56 | 1009.1 |
| 20260505013016 | 76 | 270 | 3.5 | 6.1 | 0.00 | 0.00 | 0.00 | 55 | 1009.1 |
| 20260505012016 | 77 | 293 | 3.5 | 8.7 | 0.00 | 0.00 | 0.00 | 53 | 1009.1 |
| 20260505011017 | 77 | 293 | 1.7 | 5.2 | 0.00 | 0.00 | 0.00 | 51 | 1009.2 |
| 20260505010016 | 78 | 293 | 1.7 | 5.2 | 0.00 | 0.00 | 0.00 | 50 | 1009.2 |
| 20260505005057 | 78 | 270 | 3.5 | 6.1 | 0.00 | 0.00 | 0.00 | 51 | 1009.3 |
| 20260505004035 | 79 | 293 | 3.5 | 6.1 | 0.00 | 0.00 | 0.00 | 52 | 1009.2 |
| 20260505003037 | 79 | 270 | 2.6 | 7.0 | 0.00 | 0.00 | 0.00 | 49 | 1009.2 |
| 20260505002015 | 80 | 293 | 3.5 | 7.8 | 0.00 | 0.00 | 0.00 | 47 | 1009.2 |
| 20260505001016 | 81 | 293 | 3.5 | 6.1 | 0.00 | 0.00 | 0.00 | 45 | 1009.2 |
| 20260505000016 | 82 | 293 | 2.6 | 5.2 | 0.00 | 0.00 | 0.00 | 44 | 1009.3 |
| 20260504235056 | 82 | 270 | 3.5 | 6.1 | 0.00 | 0.00 | 0.00 | 42 | 1009.2 |
| 20260504234015 | 83 | 293 | 2.6 | 6.1 | 0.00 | 0.00 | 0.00 | 41 | 1009.2 |
| 20260504233016 | 83 | 270 | 5.2 | 7.8 | 0.00 | 0.00 | 0.00 | 41 | 1009.3 |
| 20260504232016 | 82 | 270 | 3.5 | 5.2 | 0.00 | 0.00 | 0.00 | 44 | 1009.4 |
| 20260504231016 | 82 | 270 | 4.3 | 7.0 | 0.00 | 0.00 | 0.00 | 43 | 1009.4 |
| 20260504230015 | 81 | 293 | 2.6 | 6.1 | 0.00 | 0.00 | 0.00 | 43 | 1009.5 |
| 20260504225036 | 82 | 293 | 2.6 | 5.2 | 0.00 | 0.00 | 0.00 | 42 | 1009.7 |
| 20260504224015 | 82 | 270 | 2.6 | 6.1 | 0.00 | 0.00 | 0.00 | 47 | 1009.7 |
| 20260504223016 | 82 | 270 | 2.6 | 6.1 | 0.00 | 0.00 | 0.00 | 47 | 1009.8 |
| 20260504222036 | 82 | 293 | 1.7 | 4.3 | 0.00 | 0.00 | 0.00 | 44 | 1009.9 |
| 20260504221016 | 83 | 270 | 4.3 | 7.0 | 0.00 | 0.00 | 0.00 | 44 | 1010.0 |
| 20260504220017 | 82 | 270 | 3.5 | 7.8 | 0.00 | 0.00 | 0.00 | 45 | 1010.0 |
| 20260504215016 | 82 | 293 | 2.6 | 5.2 | 0.00 | 0.00 | 0.00 | 42 | 1010.1 |
| 20260504214036 | 81 | 293 | 2.6 | 4.3 | 0.00 | 0.00 | 0.00 | 45 | 1010.2 |
| 20260504213016 | 81 | 293 | 2.6 | 5.2 | 0.00 | 0.00 | 0.00 | 42 | 1010.3 |
| 20260504212015 | 81 | 293 | 1.7 | 5.2 | 0.00 | 0.00 | 0.00 | 41 | 1010.3 |
| 20260504211035 | 81 | 293 | 1.7 | 4.3 | 0.00 | 0.00 | 0.00 | 44 | 1010.3 |
| 20260504210016 | 82 | 293 | 0.9 | 2.6 | 0.00 | 0.00 | 0.00 | 40 | 1010.3 |
| 20260504205035 | 82 | 293 | 1.7 | 4.3 | 0.00 | 0.00 | 0.00 | 38 | 1010.3 |
| 20260504204015 | 81 | 270 | 2.6 | 4.3 | 0.00 | 0.00 | 0.00 | 40 | 1010.4 |
| 20260504203036 | 81 | 270 | 2.6 | 4.3 | 0.00 | 0.00 | 0.00 | 40 | 1010.4 |
| 20260504202037 | 80 | 293 | 1.7 | 4.3 | 0.00 | 0.00 | 0.00 | 41 | 1010.5 |
| 20260504201017 | 80 | 270 | 1.7 | 4.3 | 0.00 | 0.00 | 0.00 | 40 | 1010.6 |
| 20260504200056 | 79 | 270 | 2.6 | 4.3 | 0.00 | 0.00 | 0.00 | 42 | 1010.7 |
| 20260504195016 | 78 | 270 | 3.5 | 5.2 | 0.00 | 0.00 | 0.00 | 41 | 1010.7 |
| 20260504194017 | 78 | 270 | 3.5 | 5.2 | 0.00 | 0.00 | 0.00 | 45 | 1010.6 |
| 20260504193016 | 77 | 270 | 4.3 | 6.1 | 0.00 | 0.00 | 0.00 | 44 | 1010.7 |
| 20260504192015 | 77 | 270 | 3.5 | 6.1 | 0.00 | 0.00 | 0.00 | 47 | 1010.8 |
| 20260504191017 | 76 | 270 | 3.5 | 6.1 | 0.00 | 0.00 | 0.00 | 48 | 1010.9 |
| 20260504190036 | 76 | 270 | 3.5 | 6.1 | 0.00 | 0.00 | 0.00 | 47 | 1010.9 |
| 20260504185016 | 77 | 270 | 4.3 | 6.1 | 0.00 | 0.00 | 0.00 | 46 | 1011.0 |
| 20260504184016 | 77 | 270 | 3.5 | 6.1 | 0.00 | 0.00 | 0.00 | 49 | 1011.1 |
| 20260504183016 | 76 | 293 | 1.7 | 3.5 | 0.00 | 0.00 | 0.00 | 50 | 1011.2 |
| 20260504182015 | 77 | 293 | 0.9 | 2.6 | 0.00 | 0.00 | 0.00 | 47 | 1011.2 |
| 20260504181037 | 76 | 293 | 0.9 | 2.6 | 0.00 | 0.00 | 0.00 | 52 | 1011.2 |
| 20260504180015 | 75 | 293 | 0.9 | 3.5 | 0.00 | 0.00 | 0.00 | 49 | 1011.1 |
| 20260504175015 | 73 | 270 | 1.7 | 3.5 | 0.00 | 0.00 | 0.00 | 53 | 1011.1 |
| 20260504174015 | 73 | 270 | 2.6 | 3.5 | 0.00 | 0.00 | 0.00 | 51 | 1011.1 |
| 20260504173016 | 73 | 293 | 0.9 | 2.6 | 0.00 | 0.00 | 0.00 | 52 | 1011.1 |
| 20260504172035 | 72 | 270 | 0.9 | 3.5 | 0.00 | 0.00 | 0.00 | 52 | 1011.1 |
| 20260504171036 | 72 | 293 | 0.9 | 2.6 | 0.00 | 0.00 | 0.00 | 54 | 1011.1 |
| 20260504151016 | 64 | 293 | 2.6 | 3.5 | 0.00 | 0.00 | 0.00 | 65 | 1010.4 |
| 20260504141015 | 57 | 0.0 | 1.7 | 0.00 | 0.00 | 0.00 | 73 | 1009.9 |